DW2217 Weather Reports


time (UTC)temp
C
wind
direction
speed
KPH
gust
KPH
rain 1hr
cm
rain 24hr
cm
rain mn
cm
humidity
%
barometer
mb
20260901125021 14 353 3.2 3.2 0.00 0.00 0.00 86 1018.7
20260901124516 14 353 1.6 3.2 0.00 0.00 0.00 86 1018.8
20260901124016 14 352 3.2 3.2 0.00 0.00 0.00 88 1018.8
20260901123510 14 352 3.2 3.2 0.00 0.00 0.00 87 1018.8
20260901123009 14 351 1.6 3.2 0.00 0.00 0.00 87 1018.7
20260901122503 13 352 3.2 3.2 0.00 0.00 0.00 89 1018.8
20260901122002 13 351 3.2 3.2 0.00 0.00 0.00 89 1018.8
20260901121457 13 352 0.0 3.2 0.00 0.00 0.00 91 1018.7
20260901120952 13 351 3.2 3.2 0.00 0.00 0.00 92 1018.5
20260901120452 13 351 3.2 3.2 0.00 0.00 0.00 93 1018.6
20260901115948 13 350 1.6 4.8 0.00 0.00 0.00 94 1018.7
20260901115443 13 359 3.2 3.2 0.00 0.00 0.00 95 1018.6
20260901114940 13 354 3.2 3.2 0.00 0.00 0.00 96 1018.4
20260901114436 13 356 3.2 3.2 0.00 0.00 0.00 96 1018.4
20260901113933 13 356 3.2 3.2 0.00 0.00 0.00 96 1018.5
20260901113432 13 1 3.2 4.8 0.00 0.00 0.00 96 1018.4
20260901112928 13 6 3.2 3.2 0.00 0.00 0.00 97 1018.4
20260901112423 13 8 3.2 3.2 0.00 0.00 0.00 97 1018.3
20260901111917 12 12 3.2 3.2 0.00 0.00 0.00 97 1018.4
20260901111415 12 8 3.2 3.2 0.00 0.00 0.00 97 1018.4
20260901110914 12 11 0.0 3.2 0.00 0.00 0.00 98 1018.3
20260901110410 12 10 1.6 3.2 0.00 0.00 0.00 98 1018.2
20260901105906 12 13 0.0 3.2 0.00 0.00 0.00 98 1018.1
20260901105401 12 9 1.6 3.2 0.00 0.00 0.00 98 1017.8
20260901104858 12 357 3.2 4.8 0.00 0.00 0.00 98 1018.1
20260901104352 12 2 3.2 3.2 0.00 0.00 0.00 98 1018.0
20260901103849 12 2 0.0 3.2 0.00 0.00 0.00 98 1018.0
20260901103348 12 14 3.2 3.2 0.00 0.00 0.00 98 1018.0
20260901102843 12 16 1.6 3.2 0.00 0.00 0.00 98 1017.9
20260901102337 12 17 0.0 3.2 0.00 0.00 0.00 98 1017.8
20260901101833 12 17 0.0 3.2 0.00 0.00 0.00 98 1017.7
20260901101333 12 16 0.0 3.2 0.00 0.00 0.00 98 1017.7
20260901100827 12 16 1.6 3.2 0.00 0.00 0.00 98 1017.7
20260901100321 12 16 1.6 3.2 0.00 0.00 0.00 98 1017.8
20260901095820 12 16 1.6 3.2 0.00 0.00 0.00 98 1017.6
20260901095318 12 15 0.0 0.0 0.00 0.00 0.00 98 1017.8
20260901094812 12 15 1.6 3.2 0.00 0.00 0.00 98 1017.8
20260901094307 12 15 1.6 3.2 0.00 0.00 0.00 98 1017.9
20260901093802 12 15 0.0 3.2 0.00 0.00 0.00 98 1017.8
20260901093301 12 15 0.0 3.2 0.00 0.00 0.00 98 1017.9
20260901092757 12 15 0.0 3.2 0.00 0.00 0.00 98 1017.7
20260901092253 12 14 3.2 3.2 0.00 0.00 0.00 98 1017.8
20260901091748 12 14 3.2 3.2 0.00 0.00 0.00 98 1017.9
20260901091243 12 17 3.2 3.2 0.00 0.00 0.00 98 1017.8
20260901090738 12 22 3.2 3.2 0.00 0.00 0.00 98 1017.9
20260901090233 12 21 3.2 3.2 0.00 0.00 0.00 98 1017.9
20260901085729 11 39 3.2 3.2 0.00 0.00 0.00 98 1017.7
20260901085224 11 39 3.2 3.2 0.00 0.00 0.00 97 1017.8
20260901084720 12 54 3.2 3.2 0.00 0.00 0.00 97 1017.8
20260901084211 12 58 3.2 3.2 0.00 0.00 0.00 97 1017.6
20260901083711 12 59 1.6 3.2 0.00 0.00 0.00 97 1017.9
20260901083210 12 61 0.0 0.0 0.00 0.00 0.00 96 1018.0
20260901082709 12 60 0.0 0.0 0.00 0.00 0.00 97 1017.8
20260901082205 12 60 0.0 3.2 0.00 0.00 0.00 97 1017.7
20260901081700 12 59 0.0 3.2 0.00 0.00 0.00 97 1017.8
20260901081159 12 58 3.2 3.2 0.00 0.00 0.00 97 1018.0
20260901080654 12 59 1.6 3.2 0.00 0.00 0.00 97 1017.9
20260901080153 12 59 1.6 3.2 0.00 0.00 0.00 97 1018.0
20260901075648 12 59 3.2 3.2 0.00 0.00 0.00 97 1017.7
20260901075143 12 60 0.0 3.2 0.00 0.00 0.00 96 1017.8
20260901074643 12 60 1.6 3.2 0.00 0.00 0.00 96 1017.7
20260901074138 13 60 0.0 3.2 0.00 0.00 0.00 95 1017.6
20260901073634 13 59 0.0 0.0 0.00 0.00 0.00 95 1017.8
20260901073130 13 59 1.6 3.2 0.00 0.00 0.00 96 1017.7
20260901072625 13 59 1.6 3.2 0.00 0.00 0.00 96 1017.8
20260901072119 13 59 3.2 3.2 0.00 0.00 0.00 96 1018.0
20260901071613 13 59 3.2 3.2 0.00 0.00 0.00 97 1018.0
20260901071112 12 59 3.2 3.2 0.00 0.00 0.00 97 1018.1
20260901070607 12 59 3.2 3.2 0.00 0.00 0.00 96 1018.0
20260901065556 13 59 3.2 3.2 0.00 0.00 0.00 96 1018.1
20260901065050 13 59 3.2 3.2 0.00 0.00 0.00 96 1018.1
20260901064548 13 59 3.2 3.2 0.00 0.00 0.00 96 1018.0
20260901064044 13 60 3.2 3.2 0.00 0.00 0.00 97 1017.9
20260901063540 13 60 3.2 3.2 0.00 0.00 0.00 96 1018.0
20260901063036 13 60 3.2 3.2 0.00 0.00 0.00 96 1018.1
20260901062532 13 60 3.2 3.2 0.00 0.00 0.00 96 1018.0
20260901062028 13 60 1.6 3.2 0.00 0.00 0.00 97 1018.1
20260901061524 13 60 3.2 3.2 0.00 0.00 0.00 97 1018.1
20260901061024 13 60 0.0 3.2 0.00 0.00 0.00 97 1018.1
20260901060518 13 60 3.2 3.2 0.00 0.00 0.00 97 1018.3
20260901060013 13 60 1.6 3.2 0.00 0.00 0.00 97 1018.3
20260901055504 13 60 3.2 3.2 0.00 0.00 0.00 97 1018.1
20260901055001 13 60 0.0 3.2 0.00 0.00 0.00 97 1018.2
20260901054457 12 61 0.0 3.2 0.00 0.00 0.00 97 1018.2
20260901053953 12 60 3.2 3.2 0.00 0.00 0.00 97 1018.2
20260901053448 13 60 3.2 3.2 0.00 0.00 0.00 97 1018.4
20260901052944 13 61 1.6 3.2 0.00 0.00 0.00 97 1018.3
20260901052439 13 61 1.6 3.2 0.00 0.00 0.00 97 1018.6
20260901051938 13 61 3.2 3.2 0.00 0.00 0.00 97 1018.2
20260901051433 13 61 1.6 3.2 0.00 0.00 0.00 96 1018.1
20260901050927 12 61 0.0 3.2 0.00 0.00 0.00 96 1018.2
20260901050423 13 61 1.6 3.2 0.00 0.00 0.00 95 1018.1
20260901045923 13 61 0.0 3.2 0.00 0.00 0.00 96 1018.3
20260901045418 13 61 3.2 3.2 0.00 0.00 0.00 96 1018.2
20260901044913 13 61 1.6 3.2 0.00 0.00 0.00 96 1018.3
20260901044409 12 61 3.2 3.2 0.00 0.00 0.00 96 1018.4
20260901043904 12 136 3.2 3.2 0.00 0.00 0.00 96 1018.3
20260901043400 12 136 1.6 3.2 0.00 0.00 0.00 95 1018.2
20260901042854 13 136 3.2 3.2 0.00 0.00 0.00 94 1018.1
20260901042348 13 136 0.0 0.0 0.00 0.00 0.00 94 1018.0
20260901041844 13 136 0.0 0.0 0.00 0.00 0.00 95 1018.0
20260901041339 13 136 0.0 3.2 0.00 0.00 0.00 94 1018.0
20260901040833 13 136 0.0 3.2 0.00 0.00 0.00 95 1017.9
20260901040332 13 136 0.0 3.2 0.00 0.00 0.00 95 1017.9
20260901035826 13 136 1.6 3.2 0.00 0.00 0.00 95 1018.0
20260901035325 13 136 0.0 0.0 0.00 0.00 0.00 95 1017.8
20260901034824 13 136 1.6 3.2 0.00 0.00 0.00 94 1017.9
20260901034319 13 139 3.2 3.2 0.00 0.00 0.00 94 1018.1
20260901033814 13 136 0.0 0.0 0.00 0.00 0.00 94 1018.0
20260901033313 13 136 1.6 3.2 0.00 0.00 0.00 94 1018.1
20260901032812 13 136 0.0 3.2 0.00 0.00 0.00 94 1018.0
20260901032311 13 136 0.0 3.2 0.00 0.00 0.00 94 1018.0
20260901031806 13 136 0.0 0.0 0.00 0.00 0.00 93 1018.1
20260901031302 14 136 0.0 0.0 0.00 0.00 0.00 93 1018.0
20260901030802 14 136 0.0 0.0 0.00 0.00 0.00 92 1018.0
20260901030257 14 136 0.0 3.2 0.00 0.00 0.00 92 1018.0
20260901025756 14 136 0.0 3.2 0.00 0.00 0.00 92 1018.1
20260901025251 14 136 0.0 0.0 0.00 0.00 0.00 93 1018.0
20260901024746 14 136 0.0 3.2 0.00 0.00 0.00 93 1018.1
20260901024245 14 147 0.0 3.2 0.00 0.00 0.00 92 1018.2
20260901023743 15 135 3.2 3.2 0.00 0.00 0.00 91 1018.1
20260901023239 15 139 0.0 0.0 0.00 0.00 0.00 91 1018.3
20260901022734 15 139 0.0 3.2 0.00 0.00 0.00 91 1018.1
20260901022229 15 139 0.0 3.2 0.00 0.00 0.00 90 1018.1
20260901021725 15 136 0.0 0.0 0.00 0.00 0.00 90 1018.2
20260901021220 15 139 0.0 0.0 0.00 0.00 0.00 90 1018.0
20260901020715 15 139 1.6 3.2 0.00 0.00 0.00 88 1018.2
20260901020211 16 139 0.0 3.2 0.00 0.00 0.00 87 1018.1
20260901015706 16 136 0.0 3.2 0.00 0.00 0.00 86 1018.2
20260901015201 16 136 0.0 0.0 0.00 0.00 0.00 86 1018.3
20260901014655 16 136 0.0 3.2 0.00 0.00 0.00 85 1018.3
20260901014151 16 136 0.0 0.0 0.00 0.00 0.00 85 1018.1
20260901013647 16 136 0.0 0.0 0.00 0.00 0.00 84 1018.1
20260901013142 16 139 0.0 0.0 0.00 0.00 0.00 83 1018.0
20260901012637 16 139 0.0 0.0 0.00 0.00 0.00 81 1018.2
20260901012132 17 147 0.0 0.0 0.00 0.00 0.00 81 1017.7
20260901011628 17 147 0.0 0.0 0.00 0.00 0.00 80 1018.0
20260901011127 17 147 0.0 0.0 0.00 0.00 0.00 79 1017.9
20260901010621 17 147 0.0 0.0 0.00 0.00 0.00 78 1017.7
20260901010121 17 147 0.0 0.0 0.00 0.00 0.00 78 1017.9
20260901005621 17 135 1.6 3.2 0.00 0.00 0.00 77 1017.9
20260901005116 17 147 0.0 0.0 0.00 0.00 0.00 76 1017.9
20260901004615 18 147 0.0 0.0 0.00 0.00 0.00 76 1018.0
20260901004110 18 147 0.0 3.2 0.00 0.00 0.00 74 1017.9
20260901003605 18 147 1.6 3.2 0.00 0.00 0.00 74 1017.9
20260901003103 18 136 0.0 3.2 0.00 0.00 0.00 73 1017.8
20260901002558 18 136 0.0 3.2 0.00 0.00 0.00 72 1017.8
20260901002053 18 136 0.0 3.2 0.00 0.00 0.00 72 1017.6
20260901001553 18 136 1.6 3.2 0.00 0.00 0.00 72 1017.8
20260901001048 18 136 0.0 3.2 0.00 0.00 0.00 71 1017.7
20260901000543 19 136 0.0 3.2 0.00 0.00 0.00 70 1017.7
20260901000039 19 136 0.0 3.2 0.00 0.00 0.00 70 1017.5
20260831235532 19 136 0.0 3.2 0.00 0.00 0.00 70 1017.5
20260831235028 19 136 0.0 0.0 0.00 0.00 0.00 70 1017.5
20260831234522 19 136 1.6 3.2 0.00 0.00 0.00 69 1017.5
20260831234018 20 136 1.6 3.2 0.00 0.00 0.00 68 1017.5
20260831233513 20 136 1.6 3.2 0.00 0.00 0.00 68 1017.5
20260831233009 20 136 0.0 3.2 0.00 0.00 0.00 67 1017.7
20260831232504 20 136 0.0 3.2 0.00 0.00 0.00 66 1017.6
20260831231959 20 136 0.0 3.2 0.00 0.00 0.00 66 1017.5
20260831231456 20 136 1.6 3.2 0.00 0.00 0.00 65 1017.8
20260831230951 20 136 0.0 3.2 0.00 0.00 0.00 64 1017.6
20260831230446 20 136 1.6 3.2 0.00 0.00 0.00 65 1017.7
20260831225941 20 136 0.0 3.2 0.00 0.00 0.00 65 1017.9
20260831225437 20 136 0.0 3.2 0.00 0.00 0.00 64 1017.8
20260831224932 21 136 1.6 3.2 0.00 0.00 0.00 64 1017.9
20260831224431 21 136 1.6 3.2 0.00 0.00 0.00 63 1017.7
20260831223926 21 136 0.0 3.2 0.00 0.00 0.00 62 1017.8
20260831223422 21 136 1.6 3.2 0.00 0.00 0.00 62 1017.8
20260831222919 21 136 3.2 3.2 0.00 0.00 0.00 61 1017.8
20260831222414 21 136 3.2 3.2 0.00 0.00 0.00 60 1017.8
20260831221909 21 139 3.2 3.2 0.00 0.00 0.00 60 1017.8
20260831221404 21 139 1.6 3.2 0.00 0.00 0.00 60 1017.8
20260831220859 21 149 0.0 3.2 0.00 0.00 0.00 58 1017.7
20260831220349 21 139 0.0 3.2 0.00 0.00 0.00 61 1017.8
20260831215844 21 139 0.0 3.2 0.00 0.00 0.00 60 1017.6
20260831215340 22 139 3.2 3.2 0.00 0.00 0.00 58 1017.6
20260831214836 22 149 1.6 3.2 0.00 0.00 0.00 57 1017.6
20260831214333 22 139 3.2 3.2 0.00 0.00 0.00 58 1017.7
20260831213828 22 149 3.2 3.2 0.00 0.00 0.00 57 1017.8
20260831213325 22 136 0.0 3.2 0.00 0.00 0.00 56 1017.7
20260831212820 22 136 1.6 4.8 0.00 0.00 0.00 58 1017.5
20260831212317 22 137 3.2 3.2 0.00 0.00 0.00 56 1017.5
20260831211815 22 138 1.6 3.2 0.00 0.00 0.00 53 1017.5
20260831211310 22 138 1.6 3.2 0.00 0.00 0.00 51 1017.8
20260831210809 22 138 3.2 3.2 0.00 0.00 0.00 50 1017.6
20260831210301 23 140 3.2 3.2 0.00 0.00 0.00 47 1017.7
20260831205800 23 140 0.0 0.0 0.00 0.00 0.00 44 1017.7
20260831205257 23 140 0.0 3.2 0.00 0.00 0.00 45 1017.7
20260831204756 23 140 0.0 0.0 0.00 0.00 0.00 41 1017.6
20260831204255 23 140 1.6 3.2 0.00 0.00 0.00 46 1017.6
20260831203755 23 140 0.0 0.0 0.00 0.00 0.00 46 1017.8
20260831203249 23 140 0.0 3.2 0.00 0.00 0.00 44 1017.7
20260831202748 23 140 0.0 3.2 0.00 0.00 0.00 45 1017.8
20260831202243 23 141 0.0 3.2 0.00 0.00 0.00 44 1017.9
20260831201742 23 141 0.0 3.2 0.00 0.00 0.00 44 1017.9
20260831201241 23 165 3.2 4.8 0.00 0.00 0.00 41 1017.7
20260831200737 23 127 0.0 3.2 0.00 0.00 0.00 44 1017.9
20260831200232 23 144 0.0 3.2 0.00 0.00 0.00 48 1017.9
20260831195727 23 171 4.8 4.8 0.00 0.00 0.00 42 1017.8
20260831195223 23 129 0.0 0.0 0.00 0.00 0.00 43 1017.8
20260831194717 23 89 0.0 3.2 0.00 0.00 0.00 46 1017.9
20260831194214 23 89 0.0 3.2 0.00 0.00 0.00 44 1018.0
20260831193707 23 92 1.6 3.2 0.00 0.00 0.00 43 1018.1
20260831193203 23 92 0.0 0.0 0.00 0.00 0.00 43 1018.1
20260831192658 23 92 1.6 3.2 0.00 0.00 0.00 45 1018.3
20260831192153 23 92 1.6 3.2 0.00 0.00 0.00 45 1018.4
20260831191648 23 112 3.2 3.2 0.00 0.00 0.00 44 1018.4
20260831191144 24 116 3.2 3.2 0.00 0.00 0.00 43 1018.5
20260831190639 24 109 1.6 3.2 0.00 0.00 0.00 44 1018.4
20260831190138 25 202 3.2 4.8 0.00 0.00 0.00 41 1018.3
20260831185634 24 194 4.8 4.8 0.00 0.00 0.00 43 1018.4
20260831185130 25 138 1.6 3.2 0.00 0.00 0.00 43 1018.3
20260831184629 25 131 0.0 3.2 0.00 0.00 0.00 45 1018.5
20260831184125 25 131 3.2 3.2 0.00 0.00 0.00 41 1018.6
20260831183624 24 130 0.0 3.2 0.00 0.00 0.00 41 1018.4
20260831183124 25 172 0.0 3.2 0.00 0.00 0.00 41 1018.5
20260831182624 25 57 1.6 4.8 0.00 0.00 0.00 41 1018.7
20260831182120 25 142 0.0 3.2 0.00 0.00 0.00 41 1018.7
20260831181619 25 142 0.0 4.8 0.00 0.00 0.00 42 1018.6
20260831181113 25 151 3.2 3.2 0.00 0.00 0.00 41 1018.7
20260831180609 25 143 0.0 3.2 0.00 0.00 0.00 41 1018.8
20260831180104 24 146 0.0 3.2 0.00 0.00 0.00 44 1018.9
20260831175559 23 321 3.2 4.8 0.00 0.00 0.00 43 1018.8
20260831175056 24 304 0.0 3.2 0.00 0.00 0.00 42 1018.8
20260831174550 24 127 0.0 3.2 0.00 0.00 0.00 43 1018.9
20260831174050 23 320 0.0 3.2 0.00 0.00 0.00 44 1018.9
20260831173548 24 305 4.8 4.8 0.00 0.00 0.00 43 1019.0
20260831173045 23 339 0.0 3.2 0.00 0.00 0.00 47 1018.9
20260831172539 23 337 0.0 3.2 0.00 0.00 0.00 44 1019.1
20260831172035 23 77 0.0 0.0 0.00 0.00 0.00 45 1019.1
20260831171530 22 288 3.2 4.8 0.00 0.00 0.00 47 1019.1
20260831171027 22 279 0.0 3.2 0.00 0.00 0.00 48 1019.3
20260831170523 22 277 3.2 3.2 0.00 0.00 0.00 49 1019.2
20260831170020 22 232 3.2 4.8 0.00 0.00 0.00 49 1019.2
20260831165520 22 46 1.6 4.8 0.00 0.00 0.00 52 1019.3
20260831165017 22 52 1.6 3.2 0.00 0.00 0.00 50 1019.4
20260831164513 22 79 0.0 3.2 0.00 0.00 0.00 53 1019.4
20260831164008 21 60 0.0 3.2 0.00 0.00 0.00 51 1019.4
20260831163508 21 323 3.2 4.8 0.00 0.00 0.00 52 1019.6
20260831163003 21 122 0.0 4.8 0.00 0.00 0.00 53 1019.7
20260831162457 21 122 0.0 3.2 0.00 0.00 0.00 54 1019.7
20260831161955 21 137 0.0 3.2 0.00 0.00 0.00 54 1019.7
20260831161452 21 58 0.0 3.2 0.00 0.00 0.00 55 1019.9
20260831160948 20 81 3.2 3.2 0.00 0.00 0.00 57 1019.9
20260831160447 20 54 0.0 3.2 0.00 0.00 0.00 55 1019.9
20260831155942 20 197 3.2 3.2 0.00 0.00 0.00 57 1019.8
20260831155437 20 116 0.0 3.2 0.00 0.00 0.00 57 1020.1
20260831154932 20 21 1.6 3.2 0.00 0.00 0.00 60 1019.9
20260831154429 20 56 1.6 3.2 0.00 0.00 0.00 61 1020.0
20260831153927 19 111 0.0 4.8 0.00 0.00 0.00 60 1020.0
20260831153423 19 90 0.0 3.2 0.00 0.00 0.00 59 1020.1
20260831152919 19 286 4.8 4.8 0.00 0.00 0.00 61 1020.2
20260831152415 19 350 3.2 3.2 0.00 0.00 0.00 62 1020.3
20260831151910 18 75 1.6 3.2 0.00 0.00 0.00 61 1020.2
20260831151408 18 17 3.2 4.8 0.00 0.00 0.00 61 1020.3
20260831150904 18 48 0.0 3.2 0.00 0.00 0.00 62 1020.6
20260831150359 18 229 3.2 4.8 0.00 0.00 0.00 62 1020.6
20260831145858 18 109 0.0 3.2 0.00 0.00 0.00 61 1020.6
20260831145355 18 1 3.2 4.8 0.00 0.00 0.00 64 1020.7
20260831144850 18 18 0.0 4.8 0.00 0.00 0.00 60 1020.5
20260831144346 18 282 6.4 8.0 0.00 0.00 0.00 64 1020.7
20260831143846 18 45 0.0 4.8 0.00 0.00 0.00 64 1020.7
20260831143341 17 254 3.2 4.8 0.00 0.00 0.00 65 1020.6
20260831142837 17 20 3.2 4.8 0.00 0.00 0.00 67 1020.6
20260831142332 17 104 0.0 4.8 0.00 0.00 0.00 66 1020.7
20260831141826 17 24 0.0 3.2 0.00 0.00 0.00 69 1020.6
20260831141321 17 231 3.2 8.0 0.00 0.00 0.00 68 1020.5
20260831140816 17 275 3.2 4.8 0.00 0.00 0.00 68 1020.7
20260831140310 16 53 0.0 3.2 0.00 0.00 0.00 72 1020.6
20260831135808 16 75 0.0 4.8 0.00 0.00 0.00 70 1020.6
20260831135306 16 341 4.8 4.8 0.00 0.00 0.00 72 1020.7
20260831134758 16 45 3.2 3.2 0.00 0.00 0.00 74 1020.7
20260831134250 16 12 0.0 4.8 0.00 0.00 0.00 71 1020.7
20260831133749 16 327 3.2 3.2 0.00 0.00 0.00 73 1020.7
20260831133248 16 292 4.8 4.8 0.00 0.00 0.00 74 1020.6
20260831132743 16 355 3.2 4.8 0.00 0.00 0.00 76 1020.7
20260831132239 16 342 3.2 3.2 0.00 0.00 0.00 77 1020.6
20260831131738 15 304 3.2 4.8 0.00 0.00 0.00 78 1020.5
20260831131236 15 311 3.2 4.8 0.00 0.00 0.00 80 1020.4
20260831130730 15 345 1.6 3.2 0.00 0.00 0.00 83 1020.4
20260831130225 15 4 3.2 3.2 0.00 0.00 0.00 85 1020.4
20260831125723 15 15 3.2 3.2 0.00 0.00 0.00 86 1020.5